This is the latest recevied weather packets stored in our database for station/object AJ5AG. If no packets are shown the sender has not sent any weather packets the latest 10 day(s).
| Time | Temp. | Humidity | Pressure | Rain* | Wind** | Luminosity | Snow |
|---|---|---|---|---|---|---|---|
| 1777730967 | 13.89° C | 99% | 1023.4 hPa | 0 mm | - | 67 W/m² | - |
| 1777730665 | 13.33° C | 99% | 1023.5 hPa | 0 mm | - | 50 W/m² | - |
| 1777730361 | 13.33° C | 99% | 1023.2 hPa | 0 mm | - | 68 W/m² | - |
| 1777729754 | 12.78° C | 99% | 1023.3 hPa | 0 mm | - | 46 W/m² | - |
| 1777729451 | 12.78° C | 99% | 1023.3 hPa | 0 mm | - | 40 W/m² | - |
| 1777729148 | 12.78° C | 99% | 1023.4 hPa | 0 mm | - | 38 W/m² | - |
| 1777728844 | 12.22° C | 99% | 1023.1 hPa | 0 mm | - | 37 W/m² | - |
| 1777728541 | 12.22° C | 99% | 1022.9 hPa | 0 mm | - | 36 W/m² | - |
| 1777728238 | 11.67° C | 99% | 1022.9 hPa | 0 mm | - | 35 W/m² | - |
| 1777727935 | 11.67° C | 99% | 1022.8 hPa | 0 mm | - | 33 W/m² | - |
| 1777727632 | 11.11° C | 99% | 1022.7 hPa | 0 mm | - | 32 W/m² | - |
| 1777727329 | 10.56° C | 99% | 1022.7 hPa | 0 mm | - | 31 W/m² | - |
| 1777726723 | 10.56° C | 99% | 1022.5 hPa | 0 mm | - | 29 W/m² | - |
| 1777726421 | 10.56° C | 99% | 1022.2 hPa | 0 mm | - | 27 W/m² | - |
| 1777726117 | 10° C | 99% | 1022.3 hPa | 0 mm | - | 26 W/m² | - |
| 1777725512 | 10° C | 99% | 1022.1 hPa | 0 mm | - | 23 W/m² | - |
| 1777724301 | 9.44° C | 99% | 1021.9 hPa | 0 mm | - | 16 W/m² | - |
| 1777723998 | 9.44° C | 99% | 1021.7 hPa | 0 mm | - | 14 W/m² | - |
| 1777723695 | 9.44° C | 99% | 1021.8 hPa | 0 mm | - | 12 W/m² | - |
| 1777723391 | 9.44° C | 99% | 1021.7 hPa | 0 mm | - | 11 W/m² | - |
| 1777723089 | 10° C | 99% | 1021.7 hPa | 0 mm | - | 8 W/m² | - |
| 1777722786 | 10° C | 99% | 1021.6 hPa | 0 mm | - | 7 W/m² | - |
| 1777722482 | 10° C | 99% | 1021.6 hPa | 0 mm | - | 5 W/m² | - |
| 1777721876 | 10° C | 99% | 1021.5 hPa | 0 mm | - | 2 W/m² | - |
| 1777721574 | 10° C | 99% | 1021.2 hPa | 0 mm | - | 1 W/m² | - |
* Rain latest hour (hover to see other rain measurements)
** Current wind speed in m/s (hover to see current wind gust speed)